Location: Newark
(48.1500°N, 13.1167°E)
Time: 08:25:24
(UTC+00:00)

KAITUO 1B - Pass Details

Date: 01 December 2021
Orbit: 486 x 507 km, 97.4° (Epoch: 18 January)

Event Time Altitude Azimuth Distance (km) Brightness Sun altitude
Rises 05:46:37 0° 12° (NNE) 2,636 ? -8.2°
Reaches altitude 10° 05:48:43 10° 13° (NNE) 1,743 ? -7.9°
Maximum altitude 05:52:29 90° 283° (WNW) 516 ? -7.3°
Drops below altitude 10° 05:56:12 10° 194° (SSW) 1,718 ? -6.8°
Sets 05:58:16 0° 195° (SSW) 2,595 ? -6.5°
